Tracking 27124 objects as of 31-Mar-2023
HD Live streaming from Space Station
objects crossing your sky now

JILIN-01-08

Track JILIN-01-08 now!
10-day predictions


NORAD ID: 43160
Int'l Code: 2018-008F
Perigee: 528.6 km
Apogee: 538.9 km
Inclination: 97.3 °
Period: 95.2 minutes
Semi major axis: 6904 km
RCS: Unknown
Launch date: January 19, 2018
Source: People's Republic of China (PRC)
Launch site: Jiuquan Satellite Launch Center, China (JSC)
Your satellite tracking list
Your tracking list is empty




NASA's NSSDC Master Catalog

Two Line Element Set (TLE):
1 43160U 18008F   23089.95409902  .00005387  00000-0  30729-3 0  9998
2 43160  97.3032 136.6152 0007491 249.7641 231.4090 15.13138112286278
Source of the keplerian elements: AFSPC